Regional Weather Roundup
Issued by NWS Wakefield, VA

Home | Current Version | Previous Version | Text Only | Print | Product List | Glossary Off
Versions: 1 2 3 4 5 6 7 8 9 10 11 12 13 14 15 16 17 18 19 20 21 22 23 24 25 26 27

000
ASUS41 KAKQ 251815
RWRAKQ

REGIONAL WEATHER ROUNDUP
NATIONAL WEATHER SERVICE WAKEFIELD VA
200 PM EDT TUE JUL 25 2017

Note: "fair" indicates few or no clouds below 12,000 feet with no
significant weather and/or obstructions to visibility. * = Denotes
station may not report precipitation (e.g., rain,snow,etc.),
thunder or fog.

VAZ042-051-052>054-056-251900-
NORTHERN VIRGINIA

CITY           SKY/WX    TMP DP  RH WIND       PRES   REMARKS
WASH NATIONAL  PTSUNNY   81  62  52 N8        30.11F
DULLES         PTSUNNY   76  60  57 NW10      30.13S
FORT BELVOIR   CLOUDY    80  60  50 NW9       30.11S
QUANTICO       PTSUNNY   80  62  54 N10       30.12S
FREDERICKSBRG* MOSUNNY   81  61  50 N7G16     30.10F
STAFFORD*      CLOUDY    78  59  51 N9        30.15F
WARRENTON      SUNNY     81  57  43 N10       30.13S
CULPEPER*      MOSUNNY   80  61  51 N10       30.14S
MANASSAS*      CLOUDY    78  61  55 NW12      30.13S
LEESBURG*      CLOUDY    77  64  65 NW10      30.15S
WINCHESTER     CLOUDY    72  55  56 NW10      30.16S
FRONT ROYAL*   CLOUDY    73  57  56 N6        30.15S
LURAY*         CLEAR     79  55  44 N8        30.15S
$$

VAZ048-049-060>072-079>083-251900-
CENTRAL AND SOUTH CENTRAL VIRGINIA

CITY           SKY/WX    TMP DP  RH WIND       PRES   REMARKS
RICHMOND       PTSUNNY   85  62  46 VRB7G18   30.09S
CHESTERFIELD*  NOT AVBL
PETERSBURG*    CLOUDY    85  61  44 CALM      30.09S
HANOVER        SUNNY     83  60  45 VRB7G17   30.10F
TAPPAHANNOCK*  SUNNY     83  40  21 NW10G17   30.10S
QUINTON*       FAIR      83  63  50 N13G18    30.08F
CHARLOTTSVILLE SUNNY     84  58  40 NE8       30.11F
GORDONSVILLE*  PTCLDY    82  61  49 NE5       30.11S
ORANGE*        MOSUNNY   79  57  47 NE8       30.12F
LOUISA*        MOSUNNY   84  57  39 NW8       30.11F
BUMPASS*       FAIR      81  58  46 NE6       30.11F
FARMVILLE*     CLOUDY    86  55  34 CALM      30.07F
CREWE*         MOCLDY    84  58  40 N6        30.08F
FORT PICKETT*  FAIR     N/A N/A N/A N3        30.08F
CHASE CITY*    FAIR      88  62  42 SW3       30.08F
CLARKSVILLE*   FAIR      86  64  48 NE3       30.07F
SOUTH HILL*    CLOUDY    86  67  52 NW3       30.13F
LAWRENCEVILLE* MOCLDY    85  64  47 CALM      30.07F
EMPORIA*       PTSUNNY   84  66  54 N7        30.08S
$$

VAZ088>098-251900-
SOUTHEAST VIRGINIA

CITY           SKY/WX    TMP DP  RH WIND       PRES   REMARKS
NORFOLK        MOSUNNY   83  65  54 NE12      30.07S
VIRGINIA BEACH PTSUNNY   81  63  54 N13       30.07S
NORFOLK NAVAL  PTSUNNY   85  64  49 NE10G25   30.09S
WEST POINT*    PTSUNNY   84  56  38 NW7       30.09S
SALUDA*        FAIR      81  65  58 NW9       30.08S
NEWPORT NEWS   MOSUNNY   86  61  42 NW10G17   30.07S
LANGLEY AFB    MOSUNNY   82  66  57 NE8       30.07S
FORT EUSTIS    MOSUNNY   88  64  45 NW8       30.05F
WILLIAMSBURG*  PTSUNNY   91  64  40 CALM      30.08S
HR EXEC AP*    FAIR      86  70  58 CALM      30.04S
FRANKLIN*      CLOUDY    84  68  58 NE6       30.07S
US460-WAKEFLD  NOT AVBL
$$

VAZ020-022-025-037-045-251900-
WEST CENTRAL AND SOUTHWEST VIRGINIA

CITY           SKY/WX    TMP DP  RH WIND       PRES   REMARKS
STAUNTON*      SUNNY     79  57  45 N6        30.16S
WAYNESBORO*    CLEAR     81  60  48 NE3       30.14S
HOT SPRINGS VA SUNNY     75  32  20 CALM      30.26S
LYNCHBURG      SUNNY     85  59  41 VRB5      30.10F
DANVILLE       CLOUDY    87  66  49 VRB5      30.09F
SOUTH BOSTON*  FAIR      88  61  39 NW7       30.08F
MARTINSVILLE   SUNNY     87  60  40 SW3       30.12F
ROANOKE        SUNNY     88  56  33 W7        30.12F
BLACKSBURG     SUNNY     82  58  44 NW7       30.20S
DUBLIN*        SUNNY     83  50  31 N9        30.19S
MARION*        PTSUNNY   80  58  46 NW9       30.23S
HILLSVILLE*    PTSUNNY   79  50  35 CALM      30.19F
RICHLANDS*     MOCLDY    76  65  68 NW6       30.22F
WISE*          MOSUNNY   81  63  54 N8        30.23F
ABINGDON*      MOSUNNY   84  64  51 NW8       30.18F
$$

MDZ021>025-VAZ099-100-251900-
SOUTHERN MARYLAND AND THE DELMARVA PENINSULA

CITY           SKY/WX    TMP DP  RH WIND       PRES   REMARKS
PATUXENT RIVER PTSUNNY   80  64  58 N7        30.09S
BAY BRIDGE APT CLOUDY    77  63  61 N7        30.10S
LEONARDTOWN    PTSUNNY   79  59  50 NW8       30.11S
DOVER          PTSUNNY   77  77 100 NW8       30.07S
GEORGETOWN     CLOUDY    76  65  68 NE8       30.09R
EASTON         PTSUNNY   79  63  57 N9        30.13S
CAMBRIDGE      PTSUNNY   79  61  53 NW7G14    30.09S
SALISBURY      PTSUNNY   80  63  55 NW9       30.07S
OCEAN CITY     PTSUNNY   76  68  76 E10       30.07S
WALLOPS ISLAND PTSUNNY   82  62  50 NW12      30.07S
ACCOMACK*      MOSUNNY   81  64  55 N9G18     30.08S
$$

NCZ012>017-030>032-251900-
NORTH CENTRAL AND EASTERN NORTH CAROLINA

CITY           SKY/WX    TMP DP  RH WIND       PRES   REMARKS
ROANOKE RAPIDS FAIR      88  70  55 NE6       30.06F
RALEIGH        CLOUDY    88  66  48 N8        30.08S
ELIZABETH CITY MOSUNNY   86  73  65 NE14      30.06S
AHOSKIE*         N/A     84  73  69 NE5       30.06F
EDENTON*       MOSUNNY   87  73  61 CALM      30.07S
CURRITUCK*     MOSUNNY   82  67  59 NE10      30.08R
KILL DEVIL HLS MOSUNNY   80  69  70 NE5       30.07R
MANTEO         MOSUNNY   81  69  67 NE13      30.08R
CAPE HATTERAS  CLOUDY    84  74  71 NE10      30.06S
TARBORO*       NOT AVBL
GOLDSBORO      MOSUNNY   93  69  45 W6        30.03S HX  98
WASHINGTON     MOSUNNY   88  75  64 NE3       30.05S HX  97
GREENVILLE     MOSUNNY   90  72  55 N7        30.06S HX  96
NEW BERN       MOSUNNY   91  75  59 VRB3      30.04F HX 101
WILMINGTON     MOSUNNY   91  76  61 S5        30.03F HX 103
$$

VAZ048-251900-
ELSEWHERE

CITY           SKY/WX    TMP DP  RH WIND       PRES   REMARKS
HARRISBURG PA  CLOUDY    73  61  65 NW8       30.12R
BALTIMORE      PTSUNNY   79  63  57 NW9       30.10S
ANNAPOLIS      CLOUDY    78  66  66 NW8       30.10S
ANDREWS AFB    PTSUNNY   78  61  55 NW12      30.10S
PHILADELPHIA   PTSUNNY   77  62  59 NE8       30.09S
HENDERSON NC   CLOUDY    85  63  46 E3        30.08F
GREENSBORO     PTSUNNY   87  65  47 VRB6      30.10S
ROCKY MOUNT    MOSUNNY   89  72  56 NE6       30.06S HX  96
$$

VAZ100-251900-
MARINE

STATION/POSITION TIME  TEMP    WIND        PRES    WAVE   SWELL
                       AIR SEA DIR/SP/G            HT/PER HT/PER
                 (UTC) (F)     (DEG/KT/KT) (MB)    (FT/S) (FT/S)
BRANDYWINE LGT   1748          360/  9/  9   N/A
CAPE MAY NJ      1748   78 74  350/  2/  6 1018.1R
LEWES DE         1748   74 76   10/  7/  8 1018.5R
15NM E FENWICK I 1750   74 77  340/ 12/ 14 1018.6R   3/ 7   2/ 7
OCEAN-CITY-INLET 1748   74 70   70/ 12/ 16 1018.7R
WACHAPREAGUE VA  1748   82 82  230/  5/ 11 1018.3R
THOMAS POINT MD  1800   76 82  360/  8/  9   N/A
GOOSES REEF MD   1800   76 83   30/  6/ 10 1020.8    1
COVE POINT MD    1748   75      20/  7/ 10 1019.8S
SOLOMONS ISLAND  1748          360/  3/  6   N/A
BISHOPS HEAD MD  1748   78 83  330/  9/ 15 1018.9F
PINEY POINT MD   1748          340/ 10/ 11   N/A
POTOMAC MD       1800   77 83   30/ 12/ 16 1018.1    1
CAMBRIDGE MD     1748   80 86              1019.7S
LEWISETTA VA     1748   78 84  340/  9/ 11 1018.9F
RAPPAHANNOCK LGT 1748          340/ 13/ 17 1019.2S
STINGRAY PT      1800   78 84   30/ 12/ 16 1018.7    2/ 3
YORK RVR RNG VA  1748   78      10/ 12/ 14 1018.8S
YORKTOWN VA      1748   80 82  290/  8/  9 1018.1F
JAMESTOWN VA     1800      87  330/  8/ 14   N/A     0
DOMINION TERM VA 1748   82     330/  1/  6 1018.5S
KIPTOPEKE VA     1748      76  340/ 12/ 18   N/A
CHES BAY BRIDGE  1748   76 74   30/ 15/ 17 1018.3F
CAPE HENRY VA    1748   75     360/ 10/ 13   N/A
WILLOUBY STN VA  1748   78      40/ 12/ 13 1018.4S
S CRANEY ISL VA  1748   80      60/ 10/ 13 1018.1F
CAPE HENRY BUOY  1800      72                N/A     3/ 6
1ST LANDING BUOY 1800   77 75              1018.6    2/ 4
64NM E OF VA BCH 1750   77 78  350/ 16/ 17 1018.3R   3/ 4   2/ 7
DUCK PIER NC     1748   75 73   20/ 14/ 15 1018.2R
44100 DUCK FRF   1705      75                N/A     3/ 6
44056 DUCK FRF   1800      76                N/A     2/ 6
OREGON INLET NC  1748          360/  9/ 13   N/A
HATTERAS NC      1748   83 78  360/  4/  6 1017.9R
DIAMOND SHLS NC  1750   81 84  250/  6/  8 1017.9R   4/ 7   3/ 7
CAPE LOOKOUT NC  1800   83     220/  9/ 11 1017.1F
$$




USA.gov is the U.S. government's official web portal to all federal, state and local government web resources and services.